Time,TemperatureF,DewpointF,PressureIn,WindDirection,WindDirectionDegrees,WindSpeedMPH,WindSpeedGustMPH,Humidity,HourlyPrecipIn,Conditions,Clouds,dailyrainin,SoftwareType,DateUTC
2013-12-15 00:01:00,45.1,41.8,30.20,South,169,0.0,2.0,88,0.00,,OVC070,0.00,VWS V13.01,2013-12-15 08:01:00,
2013-12-15 00:06:00,45.1,41.8,30.20,SE,143,0.0,3.0,88,0.00,,OVC070,0.00,VWS V13.01,2013-12-15 08:06:00,
2013-12-15 00:11:00,45.0,41.7,30.19,SE,143,0.0,3.0,88,0.00,,OVC070,0.00,VWS V13.01,2013-12-15 08:11:00,
2013-12-15 00:16:00,44.9,41.6,30.20,SE,143,0.0,3.0,88,0.00,,OVC070,0.00,VWS V13.01,2013-12-15 08:16:00,
2013-12-15 00:21:00,44.8,41.5,30.20,SE,143,0.0,3.0,88,0.00,,OVC070,0.00,VWS V13.01,2013-12-15 08:21:00,
2013-12-15 00:26:00,44.6,41.3,30.19,SE,145,0.0,3.0,88,0.00,,OVC070,0.00,VWS V13.01,2013-12-15 08:26:00,
2013-12-15 00:31:00,44.5,41.2,30.19,SSE,151,1.0,5.0,88,0.00,,OVC070,0.00,VWS V13.01,2013-12-15 08:31:00,
2013-12-15 00:36:00,44.7,41.7,30.19,ESE,112,3.0,5.0,89,0.00,,OVC038,0.00,VWS V13.01,2013-12-15 08:36:00,
2013-12-15 00:41:00,44.7,41.7,30.19,SE,144,0.0,5.0,89,0.00,,OVC038,0.00,VWS V13.01,2013-12-15 08:41:00,
2013-12-15 00:46:00,44.6,41.6,30.19,SE,142,0.0,5.0,89,0.00,,OVC038,0.00,VWS V13.01,2013-12-15 08:46:00,
2013-12-15 00:51:00,44.6,41.6,30.19,SE,145,3.0,5.0,89,0.00,,OVC038,0.00,VWS V13.01,2013-12-15 08:51:00,
2013-12-15 00:56:00,44.7,42.0,30.19,SE,140,0.0,5.0,90,0.00,,OVC038,0.00,VWS V13.01,2013-12-15 08:56:00,
2013-12-15 01:01:00,44.6,41.6,30.19,SE,144,1.0,3.0,89,0.00,,OVC038,0.00,VWS V13.01,2013-12-15 09:01:00,
2013-12-15 01:06:00,44.7,42.0,30.19,SE,143,3.0,9.0,90,0.00,,OVC038,0.00,VWS V13.01,2013-12-15 09:06:00,
2013-12-15 01:11:00,44.8,42.0,30.19,South,170,1.0,9.0,90,0.00,,OVC038,0.00,VWS V13.01,2013-12-15 09:11:00,
2013-12-15 01:16:00,45.1,42.6,30.20,SSW,201,1.0,9.0,91,0.00,,OVC038,0.00,VWS V13.01,2013-12-15 09:16:00,
2013-12-15 01:21:00,45.2,42.7,30.19,SSE,164,2.0,9.0,91,0.00,,OVC038,0.00,VWS V13.01,2013-12-15 09:21:00,
2013-12-15 01:26:00,45.3,42.5,30.20,SSE,164,4.0,9.0,90,0.00,,OVC038,0.00,VWS V13.01,2013-12-15 09:26:00,
2013-12-15 01:35:00,45.5,43.0,30.20,SE,146,1.0,1.0,91,0.00,,,0.00,VWS V13.01,2013-12-15 09:35:00,
2013-12-15 01:40:00,45.6,42.8,30.20,South,176,4.0,8.0,90,0.00,,,0.00,VWS V13.01,2013-12-15 09:40:00,
2013-12-15 01:45:00,45.8,43.3,30.20,South,190,0.0,11.0,91,0.00,,,0.00,VWS V13.01,2013-12-15 09:45:00,
2013-12-15 01:50:00,45.8,43.3,30.20,SE,136,4.0,11.0,91,0.00,,,0.00,VWS V13.01,2013-12-15 09:50:00,
2013-12-15 01:55:00,46.0,43.2,30.20,South,176,1.0,11.0,90,0.00,,,0.00,VWS V13.01,2013-12-15 09:55:00,
2013-12-15 02:00:00,46.1,43.3,30.20,SE,134,8.0,9.0,90,0.00,,,0.00,VWS V13.01,2013-12-15 10:00:00,
2013-12-15 02:05:00,46.2,43.4,30.21,South,180,4.0,12.0,90,0.00,,,0.00,VWS V13.01,2013-12-15 10:05:00,
2013-12-15 02:10:00,46.3,43.5,30.21,South,174,2.0,14.0,90,0.00,,,0.00,VWS V13.01,2013-12-15 10:10:00,
2013-12-15 02:15:00,46.4,43.6,30.21,SSE,157,8.0,14.0,90,0.00,,,0.00,VWS V13.01,2013-12-15 10:15:00,
2013-12-15 02:20:00,46.5,43.7,30.22,SE,125,0.0,14.0,90,0.00,,,0.00,VWS V13.01,2013-12-15 10:20:00,
2013-12-15 02:25:00,46.5,43.4,30.22,SSE,165,4.0,14.0,89,0.00,,,0.00,VWS V13.01,2013-12-15 10:25:00,
2013-12-15 02:30:00,46.5,43.4,30.22,South,172,4.0,6.0,89,0.00,,,0.00,VWS V13.01,2013-12-15 10:30:00,
2013-12-15 02:35:00,46.5,43.4,30.22,South,170,1.0,11.0,89,0.00,,,0.00,VWS V13.01,2013-12-15 10:35:00,
2013-12-15 02:40:00,46.5,43.4,30.23,South,170,3.0,11.0,89,0.00,,,0.00,VWS V13.01,2013-12-15 10:40:00,
2013-12-15 02:45:00,46.5,43.4,30.22,SE,139,2.0,11.0,89,0.00,,,0.00,VWS V13.01,2013-12-15 10:45:00,
2013-12-15 02:50:00,46.5,43.4,30.23,South,173,3.0,11.0,89,0.00,,,0.00,VWS V13.01,2013-12-15 10:50:00,
2013-12-15 02:55:00,46.4,43.3,30.23,SSE,168,4.0,11.0,89,0.00,,,0.00,VWS V13.01,2013-12-15 10:55:00,
2013-12-15 03:00:00,46.4,43.0,30.23,SE,146,0.0,0.0,88,0.00,,,0.00,VWS V13.01,2013-12-15 11:00:00,
2013-12-15 03:05:00,46.4,43.3,30.23,SSE,155,0.0,8.0,89,0.00,,,0.00,VWS V13.01,2013-12-15 11:05:00,
2013-12-15 03:10:00,46.5,43.4,30.23,South,191,0.0,8.0,89,0.00,,,0.00,VWS V13.01,2013-12-15 11:10:00,
2013-12-15 03:15:00,46.5,43.1,30.22,SSE,163,6.0,8.0,88,0.00,,,0.00,VWS V13.01,2013-12-15 11:15:00,
2013-12-15 03:20:00,46.5,43.1,30.22,SSE,152,0.0,8.0,88,0.00,,,0.00,VWS V13.01,2013-12-15 11:20:00,
2013-12-15 03:25:00,46.4,43.0,30.22,SSW,193,6.0,8.0,88,0.00,,,0.00,VWS V13.01,2013-12-15 11:25:00,
2013-12-15 03:30:00,46.4,43.0,30.22,South,184,1.0,1.0,88,0.00,,,0.00,VWS V13.01,2013-12-15 11:30:00,
2013-12-15 03:35:00,46.3,43.0,30.22,South,179,4.0,7.0,88,0.00,,,0.00,VWS V13.01,2013-12-15 11:35:00,
2013-12-15 03:40:00,46.4,43.0,30.22,South,179,2.0,7.0,88,0.00,,,0.00,VWS V13.01,2013-12-15 11:40:00,
2013-12-15 03:45:00,46.3,43.0,30.22,SSE,161,3.0,7.0,88,0.00,,,0.00,VWS V13.01,2013-12-15 11:45:00,
2013-12-15 03:50:00,46.3,43.2,30.22,SSE,148,1.0,7.0,89,0.00,,,0.00,VWS V13.01,2013-12-15 11:50:00,
2013-12-15 03:55:00,46.3,43.0,30.21,South,190,3.0,7.0,88,0.00,,,0.00,VWS V13.01,2013-12-15 11:55:00,
2013-12-15 04:00:00,46.3,43.2,30.22,SSE,166,2.0,4.0,89,0.00,,,0.00,VWS V13.01,2013-12-15 12:00:00,
2013-12-15 04:05:00,46.3,43.2,30.22,SSE,163,1.0,4.0,89,0.00,,,0.00,VWS V13.01,2013-12-15 12:05:00,
2013-12-15 04:10:00,46.3,43.0,30.21,SSE,163,2.0,4.0,88,0.00,,,0.00,VWS V13.01,2013-12-15 12:10:00,
2013-12-15 04:16:00,46.2,42.8,30.21,SSE,165,0.0,4.0,88,0.00,,,0.00,VWS V13.01,2013-12-15 12:16:00,
2013-12-15 04:21:00,46.2,43.1,30.21,ESE,117,0.0,4.0,89,0.00,,,0.00,VWS V13.01,2013-12-15 12:21:00,
2013-12-15 04:25:00,46.2,43.1,30.21,ESE,121,0.0,4.0,89,0.00,,,0.00,VWS V13.01,2013-12-15 12:25:00,
2013-12-15 04:30:00,46.2,43.1,30.21,SE,127,1.0,1.0,89,0.00,,,0.00,VWS V13.01,2013-12-15 12:30:00,
2013-12-15 04:35:00,46.2,43.1,30.20,SE,138,0.0,2.0,89,0.00,,,0.00,VWS V13.01,2013-12-15 12:35:00,
2013-12-15 04:40:00,46.2,43.1,30.20,SSW,192,0.0,2.0,89,0.00,,,0.00,VWS V13.01,2013-12-15 12:40:00,
2013-12-15 04:45:00,46.2,43.1,30.20,SSW,194,0.0,2.0,89,0.00,,,0.00,VWS V13.01,2013-12-15 12:45:00,
2013-12-15 04:50:00,46.3,43.2,30.21,SSW,194,0.0,2.0,89,0.00,,,0.00,VWS V13.01,2013-12-15 12:50:00,
2013-12-15 04:55:00,46.3,43.2,30.21,SSW,194,0.0,2.0,89,0.00,,,0.00,VWS V13.01,2013-12-15 12:55:00,
2013-12-15 05:00:00,46.3,43.2,30.20,SSW,194,0.0,0.0,89,0.00,,,0.00,VWS V13.01,2013-12-15 13:00:00,
2013-12-15 05:05:00,46.3,43.2,30.20,SSW,194,0.0,0.0,89,0.00,,,0.00,VWS V13.01,2013-12-15 13:05:00,
2013-12-15 05:10:00,46.2,43.1,30.21,SSW,194,0.0,0.0,89,0.00,,,0.00,VWS V13.01,2013-12-15 13:10:00,
2013-12-15 05:15:00,46.3,43.2,30.20,SSW,194,0.0,2.0,89,0.00,,,0.00,VWS V13.01,2013-12-15 13:15:00,
2013-12-15 05:20:00,46.3,43.2,30.20,SSW,194,0.0,2.0,89,0.00,,,0.00,VWS V13.01,2013-12-15 13:20:00,
2013-12-15 05:25:00,46.3,43.2,30.20,SSW,194,0.0,2.0,89,0.00,,,0.00,VWS V13.01,2013-12-15 13:25:00,
2013-12-15 05:30:00,46.3,43.2,30.20,SSW,194,0.0,0.0,89,0.00,,,0.00,VWS V13.01,2013-12-15 13:30:00,
2013-12-15 05:35:00,46.3,43.2,30.20,ESE,117,0.0,2.0,89,0.00,,,0.00,VWS V13.01,2013-12-15 13:35:00,
2013-12-15 05:40:00,46.2,43.1,30.21,ESE,117,0.0,2.0,89,0.00,,,0.00,VWS V13.01,2013-12-15 13:40:00,
2013-12-15 05:45:00,46.3,43.5,30.20,ESE,118,0.0,2.0,90,0.00,,,0.00,VWS V13.01,2013-12-15 13:45:00,
2013-12-15 05:50:00,46.3,43.5,30.20,South,173,0.0,2.0,90,0.00,,,0.00,VWS V13.01,2013-12-15 13:50:00,
2013-12-15 05:55:00,46.3,43.2,30.20,SSE,161,0.0,4.0,89,0.00,,,0.00,VWS V13.01,2013-12-15 13:55:00,
2013-12-15 06:00:00,46.3,43.5,30.20,ESE,105,1.0,1.0,90,0.00,,,0.00,VWS V13.01,2013-12-15 14:00:00,
2013-12-15 06:05:00,46.5,43.4,30.20,SSW,193,1.0,6.0,89,0.00,,,0.00,VWS V13.01,2013-12-15 14:05:00,
2013-12-15 06:10:00,46.5,43.4,30.20,SSE,165,1.0,6.0,89,0.00,,,0.00,VWS V13.01,2013-12-15 14:10:00,
2013-12-15 06:15:00,46.5,43.4,30.21,SE,142,2.0,6.0,89,0.00,,,0.00,VWS V13.01,2013-12-15 14:15:00,
2013-12-15 06:20:00,46.5,43.4,30.21,NE,42,3.0,6.0,89,0.00,,,0.00,VWS V13.01,2013-12-15 14:20:00,
2013-12-15 06:25:00,46.5,43.4,30.20,SSE,164,5.0,6.0,89,0.00,,,0.00,VWS V13.01,2013-12-15 14:25:00,
2013-12-15 06:30:00,46.6,43.5,30.21,South,175,2.0,2.0,89,0.00,,,0.00,VWS V13.01,2013-12-15 14:30:00,
2013-12-15 06:35:00,46.6,43.5,30.21,SSW,203,0.0,3.0,89,0.00,,,0.00,VWS V13.01,2013-12-15 14:35:00,
2013-12-15 06:40:00,46.6,43.8,30.21,SSE,159,2.0,4.0,90,0.00,,,0.00,VWS V13.01,2013-12-15 14:40:00,
2013-12-15 06:45:00,46.7,43.6,30.20,SSE,153,0.0,5.0,89,0.00,,,0.00,VWS V13.01,2013-12-15 14:45:00,
2013-12-15 06:50:00,46.7,43.6,30.21,South,178,0.0,5.0,89,0.00,,,0.00,VWS V13.01,2013-12-15 14:50:00,
2013-12-15 06:55:00,46.6,43.5,30.21,South,178,0.0,5.0,89,0.00,,,0.00,VWS V13.01,2013-12-15 14:55:00,
2013-12-15 07:00:00,46.7,43.6,30.20,South,180,1.0,3.0,89,0.00,,,0.00,VWS V13.01,2013-12-15 15:00:00,
2013-12-15 07:05:00,46.7,43.6,30.20,South,182,0.0,4.0,89,0.00,,,0.00,VWS V13.01,2013-12-15 15:05:00,
2013-12-15 07:10:00,46.8,43.7,30.20,SSW,198,0.0,8.0,89,0.00,,,0.00,VWS V13.01,2013-12-15 15:10:00,
2013-12-15 07:15:00,46.9,43.8,30.20,SSW,198,1.0,8.0,89,0.00,,,0.00,VWS V13.01,2013-12-15 15:15:00,
2013-12-15 07:20:00,47.0,43.9,30.20,SSE,149,0.0,9.0,89,0.00,,,0.00,VWS V13.01,2013-12-15 15:20:00,
2013-12-15 07:25:00,47.1,44.0,30.20,SSE,159,0.0,9.0,89,0.00,,,0.00,VWS V13.01,2013-12-15 15:25:00,
2013-12-15 07:30:00,47.1,44.0,30.20,SW,227,0.0,4.0,89,0.00,,,0.00,VWS V13.01,2013-12-15 15:30:00,
2013-12-15 07:35:00,47.1,44.0,30.21,SSW,195,8.0,8.0,89,0.00,,OVC004,0.00,VWS V13.01,2013-12-15 15:35:00,
2013-12-15 07:40:00,47.1,44.0,30.20,SSW,211,0.0,8.0,89,0.00,,OVC004,0.00,VWS V13.01,2013-12-15 15:40:00,
2013-12-15 07:45:00,47.1,43.7,30.21,SSW,206,2.0,8.0,88,0.00,,OVC004,0.00,VWS V13.01,2013-12-15 15:45:00,
2013-12-15 07:50:00,47.2,44.1,30.21,SW,224,2.0,8.0,89,0.00,,OVC004,0.00,VWS V13.01,2013-12-15 15:50:00,
2013-12-15 07:56:00,47.2,44.1,30.22,WSW,243,0.0,8.0,89,0.00,,OVC004,0.00,VWS V13.01,2013-12-15 15:56:00,
2013-12-15 08:00:00,47.2,44.1,30.22,SSW,200,0.0,2.0,89,0.00,,OVC004,0.00,VWS V13.01,2013-12-15 16:00:00,
2013-12-15 08:05:00,47.3,44.2,30.21,SSW,205,0.0,6.0,89,0.00,,OVC004,0.00,VWS V13.01,2013-12-15 16:05:00,
2013-12-15 08:10:00,47.3,44.2,30.21,SSW,208,0.0,6.0,89,0.00,,OVC004,0.00,VWS V13.01,2013-12-15 16:10:00,
2013-12-15 08:15:00,47.3,44.2,30.21,South,174,0.0,6.0,89,0.00,,OVC004,0.00,VWS V13.01,2013-12-15 16:15:00,
2013-12-15 08:20:00,47.3,44.2,30.21,West,272,1.0,6.0,89,0.00,,OVC004,0.00,VWS V13.01,2013-12-15 16:20:00,
2013-12-15 08:25:00,47.4,44.3,30.22,SSW,202,5.0,6.0,89,0.00,,OVC004,0.00,VWS V13.01,2013-12-15 16:25:00,
2013-12-15 08:30:00,47.4,44.0,30.22,SW,231,0.0,0.0,88,0.00,,OVC004,0.00,VWS V13.01,2013-12-15 16:30:00,
2013-12-15 08:35:00,47.4,44.3,30.23,SW,231,0.0,1.0,89,0.00,,OVC004,0.00,VWS V13.01,2013-12-15 16:35:00,
2013-12-15 08:40:00,47.4,44.3,30.23,WSW,245,0.0,2.0,89,0.00,,OVC004,0.00,VWS V13.01,2013-12-15 16:40:00,
2013-12-15 08:45:00,47.5,44.4,30.22,WSW,243,0.0,2.0,89,0.00,,OVC004,0.00,VWS V13.01,2013-12-15 16:45:00,
2013-12-15 08:50:00,47.5,44.1,30.22,SE,143,0.0,4.0,88,0.00,,OVC004,0.00,VWS V13.01,2013-12-15 16:50:00,
2013-12-15 08:55:00,47.5,44.1,30.23,South,190,1.0,4.0,88,0.00,,OVC004,0.00,VWS V13.01,2013-12-15 16:55:00,
2013-12-15 09:00:00,47.5,44.1,30.23,SSW,211,0.0,1.0,88,0.00,,OVC004,0.00,VWS V13.01,2013-12-15 17:00:00,
2013-12-15 09:05:00,47.5,44.4,30.23,South,172,1.0,3.0,89,0.00,,OVC004,0.00,VWS V13.01,2013-12-15 17:05:00,
2013-12-15 09:10:00,47.6,44.2,30.23,SSE,151,0.0,5.0,88,0.00,,OVC004,0.00,VWS V13.01,2013-12-15 17:10:00,
2013-12-15 09:15:00,47.7,44.3,30.23,South,177,0.0,5.0,88,0.00,,OVC004,0.00,VWS V13.01,2013-12-15 17:15:00,
2013-12-15 09:20:00,47.8,44.4,30.23,SSW,209,0.0,5.0,88,0.00,,OVC004,0.00,VWS V13.01,2013-12-15 17:20:00,
2013-12-15 09:25:00,47.8,44.4,30.23,SW,223,3.0,5.0,88,0.00,,OVC004,0.00,VWS V13.01,2013-12-15 17:25:00,
2013-12-15 09:30:00,47.8,44.4,30.23,SSW,197,0.0,0.0,88,0.00,,OVC004,0.00,VWS V13.01,2013-12-15 17:30:00,
2013-12-15 09:35:00,47.8,44.4,30.23,East,98,0.0,4.0,88,0.00,,OVC004,0.00,VWS V13.01,2013-12-15 17:35:00,
2013-12-15 09:40:00,48.1,44.7,30.23,East,101,0.0,4.0,88,0.00,,OVC004,0.00,VWS V13.01,2013-12-15 17:40:00,
2013-12-15 09:45:00,48.2,44.8,30.23,ESE,104,0.0,4.0,88,0.00,,OVC004,0.00,VWS V13.01,2013-12-15 17:45:00,
2013-12-15 09:50:00,48.3,44.9,30.23,WSW,248,0.0,4.0,88,0.00,,OVC004,0.00,VWS V13.01,2013-12-15 17:50:00,
2013-12-15 09:55:00,48.5,45.1,30.23,WSW,244,0.0,4.0,88,0.00,,OVC004,0.00,VWS V13.01,2013-12-15 17:55:00,
2013-12-15 10:00:00,48.7,45.3,30.24,SSW,208,1.0,2.0,88,0.00,,OVC004,0.00,VWS V13.01,2013-12-15 18:00:00,
2013-12-15 10:05:00,48.9,45.5,30.23,WNW,296,0.0,3.0,88,0.00,,OVC004,0.00,VWS V13.01,2013-12-15 18:05:00,
2013-12-15 10:10:00,49.1,45.7,30.23,WNW,296,0.0,3.0,88,0.00,,OVC004,0.00,VWS V13.01,2013-12-15 18:10:00,
2013-12-15 10:15:00,49.3,45.9,30.23,WNW,296,0.0,3.0,88,0.00,,OVC004,0.00,VWS V13.01,2013-12-15 18:15:00,
2013-12-15 10:20:00,49.4,46.0,30.24,SW,220,0.0,3.0,88,0.00,,OVC004,0.00,VWS V13.01,2013-12-15 18:20:00,
2013-12-15 10:25:00,49.5,45.8,30.24,NW,313,0.0,3.0,87,0.00,,OVC004,0.00,VWS V13.01,2013-12-15 18:25:00,
2013-12-15 10:30:00,49.6,45.9,30.24,WSW,242,2.0,2.0,87,0.00,,OVC004,0.00,VWS V13.01,2013-12-15 18:30:00,
2013-12-15 10:35:00,49.7,46.0,30.23,South,177,1.0,8.0,87,0.00,,OVC006,0.00,VWS V13.01,2013-12-15 18:35:00,
2013-12-15 10:40:00,49.8,46.1,30.23,South,191,1.0,8.0,87,0.00,,OVC006,0.00,VWS V13.01,2013-12-15 18:40:00,
2013-12-15 10:45:00,49.8,45.8,30.23,SSW,212,0.0,8.0,86,0.00,,OVC006,0.00,VWS V13.01,2013-12-15 18:45:00,
2013-12-15 10:50:00,49.9,45.9,30.23,SSW,201,1.0,8.0,86,0.00,,OVC006,0.00,VWS V13.01,2013-12-15 18:50:00,
2013-12-15 10:55:00,49.9,45.9,30.23,SSW,199,2.0,8.0,86,0.00,,OVC006,0.00,VWS V13.01,2013-12-15 18:55:00,
2013-12-15 11:00:00,49.9,45.9,30.23,SSW,212,3.0,7.0,86,0.00,,OVC006,0.00,VWS V13.01,2013-12-15 19:00:00,
2013-12-15 11:05:00,49.9,45.9,30.23,SW,232,1.0,7.0,86,0.00,,OVC006,0.00,VWS V13.01,2013-12-15 19:05:00,
2013-12-15 11:10:00,49.9,45.9,30.23,SSW,209,1.0,7.0,86,0.00,,OVC006,0.00,VWS V13.01,2013-12-15 19:10:00,
2013-12-15 11:15:00,50.0,46.0,30.23,SW,223,1.0,7.0,86,0.00,,OVC006,0.00,VWS V13.01,2013-12-15 19:15:00,
2013-12-15 11:20:00,50.1,46.1,30.23,SE,146,0.0,7.0,86,0.00,,OVC006,0.00,VWS V13.01,2013-12-15 19:20:00,
2013-12-15 11:25:00,50.3,46.3,30.23,SSW,211,0.0,7.0,86,0.00,,OVC006,0.00,VWS V13.01,2013-12-15 19:25:00,
2013-12-15 11:30:00,50.3,46.0,30.23,SW,215,0.0,0.0,85,0.00,,OVC006,0.00,VWS V13.01,2013-12-15 19:30:00,
2013-12-15 11:35:00,50.5,46.5,30.23,SW,224,0.0,2.0,86,0.00,,OVC008,0.00,VWS V13.01,2013-12-15 19:35:00,
2013-12-15 11:40:00,50.7,46.4,30.23,West,263,1.0,3.0,85,0.00,,OVC008,0.00,VWS V13.01,2013-12-15 19:40:00,
2013-12-15 11:45:00,50.7,46.4,30.22,SW,235,1.0,4.0,85,0.00,,OVC008,0.00,VWS V13.01,2013-12-15 19:45:00,
2013-12-15 11:47:00,50.7,46.4,30.23,SW,235,0.0,4.0,85,0.00,,OVC008,0.00,VWS V13.01,2013-12-15 19:47:00,
2013-12-15 11:52:00,50.8,46.5,30.23,West,261,1.0,5.0,85,0.00,,OVC008,0.00,VWS V13.01,2013-12-15 19:52:00,
2013-12-15 11:57:00,50.8,46.5,30.23,WNW,290,3.0,5.0,85,0.00,,OVC008,0.00,VWS V13.01,2013-12-15 19:57:00,
2013-12-15 12:02:00,50.7,46.4,30.23,West,280,3.0,4.0,85,0.00,,OVC008,0.00,VWS V13.01,2013-12-15 20:02:00,
2013-12-15 12:07:00,50.6,46.3,30.23,WNW,298,1.0,4.0,85,0.00,,OVC008,0.00,VWS V13.01,2013-12-15 20:07:00,
2013-12-15 12:12:00,50.6,46.6,30.23,WNW,298,2.0,4.0,86,0.00,,OVC008,0.00,VWS V13.01,2013-12-15 20:12:00,
2013-12-15 12:17:00,50.6,46.6,30.23,WNW,298,1.0,4.0,86,0.00,,OVC008,0.00,VWS V13.01,2013-12-15 20:17:00,
2013-12-15 12:22:00,50.7,47.0,30.23,WNW,298,1.0,4.0,87,0.00,,OVC008,0.00,VWS V13.01,2013-12-15 20:22:00,
2013-12-15 12:27:00,50.8,47.1,30.22,WNW,298,1.0,4.0,87,0.00,,OVC008,0.00,VWS V13.01,2013-12-15 20:27:00,
2013-12-15 12:32:00,50.8,47.1,30.23,WNW,298,0.0,2.0,87,0.00,,OVC010,0.00,VWS V13.01,2013-12-15 20:32:00,
2013-12-15 12:37:00,50.9,47.2,30.23,WNW,298,0.0,2.0,87,0.00,,OVC010,0.00,VWS V13.01,2013-12-15 20:37:00,
2013-12-15 12:42:00,51.0,47.3,30.22,WNW,298,0.0,2.0,87,0.00,,OVC010,0.00,VWS V13.01,2013-12-15 20:42:00,
2013-12-15 12:47:00,51.1,47.4,30.22,WNW,298,0.0,2.0,87,0.00,,OVC010,0.00,VWS V13.01,2013-12-15 20:47:00,
2013-12-15 12:52:00,51.1,46.8,30.22,WNW,298,0.0,2.0,85,0.00,,OVC010,0.00,VWS V13.01,2013-12-15 20:52:00,
2013-12-15 12:57:00,51.0,46.7,30.22,NW,312,1.0,2.0,85,0.00,,OVC008,0.00,VWS V13.01,2013-12-15 20:57:00,
2013-12-15 13:02:00,50.8,46.5,30.22,NW,312,0.0,1.0,85,0.00,,OVC010,0.00,VWS V13.01,2013-12-15 21:02:00,
2013-12-15 13:07:00,50.6,46.6,30.23,NW,316,1.0,1.0,86,0.00,,OVC010,0.00,VWS V13.01,2013-12-15 21:07:00,
2013-12-15 13:12:00,50.4,46.4,30.22,North,0,1.0,2.0,86,0.00,,OVC010,0.00,VWS V13.01,2013-12-15 21:12:00,
2013-12-15 13:17:00,50.3,46.3,30.23,North,0,0.0,2.0,86,0.00,,OVC008,0.00,VWS V13.01,2013-12-15 21:17:00,
2013-12-15 13:22:00,50.3,46.0,30.23,North,0,2.0,2.0,85,0.00,,OVC008,0.00,VWS V13.01,2013-12-15 21:22:00,
2013-12-15 13:27:00,50.3,45.7,30.23,North,0,0.0,2.0,84,0.00,,OVC008,0.00,VWS V13.01,2013-12-15 21:27:00,
2013-12-15 13:32:00,50.4,45.8,30.23,North,0,0.0,1.0,84,0.00,,OVC012,0.00,VWS V13.01,2013-12-15 21:32:00,
2013-12-15 13:37:00,50.4,46.1,30.23,North,0,0.0,1.0,85,0.00,,OVC012,0.00,VWS V13.01,2013-12-15 21:37:00,
2013-12-15 13:42:00,50.6,46.3,30.23,North,0,0.0,1.0,85,0.00,,OVC012,0.00,VWS V13.01,2013-12-15 21:42:00,
2013-12-15 13:47:00,50.7,46.4,30.23,North,0,0.0,1.0,85,0.00,,OVC012,0.00,VWS V13.01,2013-12-15 21:47:00,
2013-12-15 13:52:00,50.7,46.4,30.23,North,0,0.0,1.0,85,0.00,,OVC012,0.00,VWS V13.01,2013-12-15 21:52:00,
2013-12-15 13:57:00,50.8,46.5,30.23,SE,124,0.0,1.0,85,0.00,,OVC012,0.00,VWS V13.01,2013-12-15 21:57:00,
2013-12-15 14:02:00,50.8,46.2,30.23,ESE,114,0.0,2.0,84,0.00,,OVC012,0.00,VWS V13.01,2013-12-15 22:02:00,
2013-12-15 14:07:00,50.9,46.6,30.23,ESE,112,0.0,2.0,85,0.00,,OVC012,0.00,VWS V13.01,2013-12-15 22:07:00,
2013-12-15 14:12:00,50.9,46.2,30.23,ESE,108,0.0,2.0,84,0.00,,OVC012,0.00,VWS V13.01,2013-12-15 22:12:00,
2013-12-15 14:17:00,51.0,46.7,30.23,ESE,109,0.0,2.0,85,0.00,,OVC012,0.00,VWS V13.01,2013-12-15 22:17:00,
2013-12-15 14:22:00,51.0,46.3,30.23,ESE,102,0.0,2.0,84,0.00,,OVC012,0.00,VWS V13.01,2013-12-15 22:22:00,
2013-12-15 14:27:00,51.1,46.8,30.23,ESE,103,0.0,2.0,85,0.00,,OVC012,0.00,VWS V13.01,2013-12-15 22:27:00,
2013-12-15 14:32:00,51.1,46.4,30.23,ESE,107,0.0,1.0,84,0.00,,OVC010,0.00,VWS V13.01,2013-12-15 22:32:00,
2013-12-15 14:37:00,51.2,46.8,30.23,ESE,109,0.0,1.0,85,0.00,,OVC010,0.00,VWS V13.01,2013-12-15 22:37:00,
2013-12-15 14:42:00,51.2,46.8,30.23,ESE,109,0.0,1.0,85,0.00,,OVC010,0.00,VWS V13.01,2013-12-15 22:42:00,
2013-12-15 14:47:00,51.2,46.8,30.23,ESE,108,0.0,1.0,85,0.00,,OVC010,0.00,VWS V13.01,2013-12-15 22:47:00,
2013-12-15 14:52:00,51.2,46.8,30.23,ESE,108,0.0,1.0,85,0.00,,OVC010,0.00,VWS V13.01,2013-12-15 22:52:00,
2013-12-15 14:57:00,51.1,46.8,30.24,ESE,109,0.0,1.0,85,0.00,,OVC010,0.00,VWS V13.01,2013-12-15 22:57:00,
2013-12-15 15:02:00,51.1,46.8,30.24,ESE,108,0.0,0.0,85,0.00,,OVC010,0.00,VWS V13.01,2013-12-15 23:02:00,
2013-12-15 15:07:00,51.0,46.7,30.24,ESE,108,0.0,0.0,85,0.00,,OVC010,0.00,VWS V13.01,2013-12-15 23:07:00,
2013-12-15 15:12:00,51.0,46.7,30.24,ESE,108,0.0,0.0,85,0.00,,OVC010,0.00,VWS V13.01,2013-12-15 23:12:00,
2013-12-15 15:17:00,50.7,46.7,30.24,NE,37,0.0,2.0,86,0.00,,OVC010,0.00,VWS V13.01,2013-12-15 23:17:00,
2013-12-15 15:22:00,50.5,46.8,30.24,NE,37,0.0,2.0,87,0.00,,OVC010,0.00,VWS V13.01,2013-12-15 23:22:00,
2013-12-15 15:27:00,50.4,46.7,30.24,NE,37,0.0,2.0,87,0.00,,OVC010,0.00,VWS V13.01,2013-12-15 23:27:00,
2013-12-15 15:32:00,50.3,46.6,30.24,NE,37,0.0,1.0,87,0.00,,OVC010,0.00,VWS V13.01,2013-12-15 23:32:00,
2013-12-15 15:37:00,50.1,46.7,30.24,North,8,2.0,4.0,88,0.00,,OVC010,0.00,VWS V13.01,2013-12-15 23:37:00,
2013-12-15 15:42:00,49.9,46.5,30.24,North,9,2.0,5.0,88,0.00,,OVC010,0.00,VWS V13.01,2013-12-15 23:42:00,
2013-12-15 15:47:00,49.9,46.2,30.24,North,7,2.0,5.0,87,0.00,,OVC010,0.00,VWS V13.01,2013-12-15 23:47:00,
2013-12-15 15:52:00,49.9,46.2,30.24,North,9,2.0,5.0,87,0.00,,OVC010,0.00,VWS V13.01,2013-12-15 23:52:00,
2013-12-15 15:57:00,49.9,46.5,30.25,North,10,0.0,5.0,88,0.00,,OVC010,0.00,VWS V13.01,2013-12-15 23:57:00,
2013-12-15 16:02:00,49.9,46.2,30.25,North,10,0.0,0.0,87,0.00,,OVC010,0.00,VWS V13.01,2013-12-16 00:02:00,
2013-12-15 16:07:00,49.9,46.2,30.25,NNE,22,2.0,4.0,87,0.00,,OVC010,0.00,VWS V13.01,2013-12-16 00:07:00,
2013-12-15 16:12:00,49.9,46.2,30.25,NE,36,1.0,4.0,87,0.00,,OVC010,0.00,VWS V13.01,2013-12-16 00:12:00,
2013-12-15 16:17:00,49.9,46.2,30.25,NE,46,0.0,4.0,87,0.00,,OVC010,0.00,VWS V13.01,2013-12-16 00:17:00,
2013-12-15 16:22:00,49.9,46.2,30.25,ENE,67,0.0,4.0,87,0.00,,OVC010,0.00,VWS V13.01,2013-12-16 00:22:00,
2013-12-15 16:27:00,49.9,46.2,30.25,ENE,78,0.0,4.0,87,0.00,,OVC010,0.00,VWS V13.01,2013-12-16 00:27:00,
2013-12-15 16:32:00,49.9,46.2,30.25,ENE,58,0.0,0.0,87,0.00,,OVC010,0.00,VWS V13.01,2013-12-16 00:32:00,
2013-12-15 16:37:00,49.8,46.1,30.25,ENE,58,0.0,1.0,87,0.00,,OVC010,0.00,VWS V13.01,2013-12-16 00:37:00,
2013-12-15 16:42:00,49.8,46.1,30.25,NE,50,0.0,1.0,87,0.00,,OVC010,0.00,VWS V13.01,2013-12-16 00:42:00,
2013-12-15 16:47:00,49.8,46.1,30.26,NE,50,0.0,1.0,87,0.00,,OVC010,0.00,VWS V13.01,2013-12-16 00:47:00,
2013-12-15 16:52:00,49.8,46.1,30.25,NE,50,0.0,1.0,87,0.00,,OVC010,0.00,VWS V13.01,2013-12-16 00:52:00,
2013-12-15 16:57:00,49.7,46.0,30.25,NE,50,0.0,1.0,87,0.00,,OVC010,0.00,VWS V13.01,2013-12-16 00:57:00,
2013-12-15 17:02:00,49.7,46.0,30.25,NE,50,0.0,0.0,87,0.00,,OVC010,0.00,VWS V13.01,2013-12-16 01:02:00,
2013-12-15 17:07:00,49.7,46.0,30.25,NE,50,0.0,0.0,87,0.00,,OVC010,0.00,VWS V13.01,2013-12-16 01:07:00,
2013-12-15 17:12:00,49.6,46.2,30.25,NE,50,0.0,1.0,88,0.00,,OVC010,0.00,VWS V13.01,2013-12-16 01:12:00,
2013-12-15 17:17:00,49.6,46.2,30.25,North,354,0.0,2.0,88,0.00,,OVC010,0.00,VWS V13.01,2013-12-16 01:17:00,
2013-12-15 17:22:00,49.4,46.3,30.25,North,354,1.0,3.0,89,0.00,,OVC010,0.00,VWS V13.01,2013-12-16 01:22:00,
2013-12-15 17:27:00,49.3,46.2,30.25,North,354,0.0,3.0,89,0.00,,OVC010,0.00,VWS V13.01,2013-12-16 01:27:00,
2013-12-15 17:32:00,49.3,46.5,30.25,North,354,0.0,0.0,90,0.00,,OVC010,0.00,VWS V13.01,2013-12-16 01:32:00,
2013-12-15 17:37:00,49.3,46.5,30.25,North,354,0.0,0.0,90,0.00,,OVC008,0.00,VWS V13.01,2013-12-16 01:37:00,
2013-12-15 17:42:00,49.3,46.2,30.25,North,354,0.0,0.0,89,0.00,,OVC008,0.00,VWS V13.01,2013-12-16 01:42:00,
2013-12-15 17:47:00,49.3,46.2,30.25,North,354,0.0,0.0,89,0.00,,OVC008,0.00,VWS V13.01,2013-12-16 01:47:00,
2013-12-15 17:52:00,49.3,46.2,30.25,North,354,0.0,0.0,89,0.00,,OVC008,0.00,VWS V13.01,2013-12-16 01:52:00,
2013-12-15 17:57:00,49.2,46.1,30.25,North,354,0.0,0.0,89,0.00,,OVC008,0.00,VWS V13.01,2013-12-16 01:57:00,
2013-12-15 18:02:00,49.2,46.1,30.25,North,354,0.0,0.0,89,0.00,,OVC008,0.00,VWS V13.01,2013-12-16 02:02:00,
2013-12-15 18:07:00,49.1,46.3,30.25,North,354,0.0,0.0,90,0.00,,OVC008,0.00,VWS V13.01,2013-12-16 02:07:00,
2013-12-15 18:12:00,49.1,46.3,30.25,North,354,0.0,0.0,90,0.00,,OVC008,0.00,VWS V13.01,2013-12-16 02:12:00,
2013-12-15 18:17:00,49.1,46.3,30.25,North,354,0.0,0.0,90,0.00,,OVC008,0.00,VWS V13.01,2013-12-16 02:17:00,
2013-12-15 18:22:00,49.1,46.6,30.25,North,354,0.0,0.0,91,0.00,,OVC008,0.00,VWS V13.01,2013-12-16 02:22:00,
2013-12-15 18:27:00,49.0,46.2,30.25,North,354,0.0,0.0,90,0.00,,OVC008,0.00,VWS V13.01,2013-12-16 02:27:00,
2013-12-15 18:32:00,49.0,46.5,30.25,North,354,0.0,0.0,91,0.00,,OVC008,0.00,VWS V13.01,2013-12-16 02:32:00,
2013-12-15 18:37:00,49.0,46.5,30.26,North,354,0.0,0.0,91,0.00,,OVC008,0.00,VWS V13.01,2013-12-16 02:37:00,
2013-12-15 18:42:00,49.0,46.2,30.26,North,354,0.0,0.0,90,0.00,,OVC008,0.00,VWS V13.01,2013-12-16 02:42:00,
2013-12-15 18:47:00,48.9,46.4,30.26,North,354,0.0,0.0,91,0.00,,OVC008,0.00,VWS V13.01,2013-12-16 02:47:00,
2013-12-15 18:52:00,48.9,46.1,30.26,North,354,0.0,0.0,90,0.00,,OVC008,0.00,VWS V13.01,2013-12-16 02:52:00,
2013-12-15 18:57:00,48.9,46.1,30.26,North,354,0.0,0.0,90,0.00,,OVC008,0.00,VWS V13.01,2013-12-16 02:57:00,
2013-12-15 19:02:00,48.9,46.4,30.26,North,354,0.0,0.0,91,0.00,,OVC008,0.00,VWS V13.01,2013-12-16 03:02:00,
2013-12-15 19:06:00,48.9,46.4,30.26,North,354,0.0,1.0,91,0.00,,OVC008,0.00,VWS V13.01,2013-12-16 03:06:00,
2013-12-15 19:11:00,48.8,46.3,30.27,North,354,0.0,1.0,91,0.00,,OVC008,0.00,VWS V13.01,2013-12-16 03:11:00,
2013-12-15 19:16:00,48.9,46.4,30.27,North,354,0.0,1.0,91,0.00,,OVC008,0.00,VWS V13.01,2013-12-16 03:16:00,
2013-12-15 19:21:00,48.9,46.4,30.27,North,357,0.0,1.0,91,0.00,,OVC008,0.00,VWS V13.01,2013-12-16 03:21:00,
2013-12-15 19:26:00,48.9,46.4,30.27,North,357,0.0,1.0,91,0.00,,OVC008,0.00,VWS V13.01,2013-12-16 03:26:00,
2013-12-15 19:31:00,48.9,46.4,30.27,North,357,0.0,0.0,91,0.00,,OVC008,0.00,VWS V13.01,2013-12-16 03:31:00,
2013-12-15 19:36:00,48.9,46.4,30.27,North,357,0.0,0.0,91,0.00,,OVC008,0.00,VWS V13.01,2013-12-16 03:36:00,
2013-12-15 19:39:00,48.9,46.4,30.27,North,357,0.0,0.0,91,0.00,,OVC008,0.00,VWS V13.01,2013-12-16 03:39:00,
2013-12-15 19:44:00,48.9,46.4,30.28,North,357,0.0,0.0,91,0.00,,OVC008,0.00,VWS V13.01,2013-12-16 03:44:00,
2013-12-15 19:49:00,48.8,46.3,30.27,North,357,0.0,0.0,91,0.00,,OVC008,0.00,VWS V13.01,2013-12-16 03:49:00,
2013-12-15 19:54:00,48.8,46.3,30.28,North,357,0.0,0.0,91,0.00,,OVC008,0.00,VWS V13.01,2013-12-16 03:54:00,
2013-12-15 19:59:00,48.7,46.2,30.27,North,357,0.0,0.0,91,0.00,,OVC008,0.00,VWS V13.01,2013-12-16 03:59:00,
2013-12-15 20:04:00,48.6,46.1,30.27,North,357,0.0,0.0,91,0.00,,OVC008,0.00,VWS V13.01,2013-12-16 04:04:00,
2013-12-15 20:09:00,48.4,45.9,30.27,North,357,0.0,0.0,91,0.00,,OVC008,0.00,VWS V13.01,2013-12-16 04:09:00,
2013-12-15 20:14:00,48.4,45.9,30.27,North,357,0.0,0.0,91,0.00,,OVC008,0.00,VWS V13.01,2013-12-16 04:14:00,
2013-12-15 20:19:00,48.3,45.8,30.27,North,357,0.0,0.0,91,0.00,,OVC008,0.00,VWS V13.01,2013-12-16 04:19:00,
2013-12-15 20:24:00,48.3,45.8,30.28,North,357,0.0,0.0,91,0.00,,OVC008,0.00,VWS V13.01,2013-12-16 04:24:00,
2013-12-15 20:29:00,48.2,45.7,30.28,North,357,0.0,0.0,91,0.00,,OVC008,0.00,VWS V13.01,2013-12-16 04:29:00,
2013-12-15 20:34:00,48.2,45.7,30.28,North,357,0.0,0.0,91,0.00,,OVC004,0.00,VWS V13.01,2013-12-16 04:34:00,
2013-12-15 20:39:00,48.2,45.7,30.28,North,357,0.0,0.0,91,0.00,,OVC004,0.00,VWS V13.01,2013-12-16 04:39:00,
2013-12-15 20:44:00,48.2,45.7,30.28,North,357,0.0,0.0,91,0.00,,OVC004,0.00,VWS V13.01,2013-12-16 04:44:00,
2013-12-15 20:49:00,48.2,45.7,30.29,North,357,0.0,1.0,91,0.00,,OVC004,0.00,VWS V13.01,2013-12-16 04:49:00,
2013-12-15 20:54:00,48.2,45.7,30.29,North,357,0.0,1.0,91,0.00,,OVC004,0.00,VWS V13.01,2013-12-16 04:54:00,
2013-12-15 20:59:00,48.2,45.7,30.29,North,357,0.0,1.0,91,0.00,,OVC004,0.00,VWS V13.01,2013-12-16 04:59:00,
2013-12-15 21:01:00,48.2,45.7,30.29,North,357,0.0,0.0,91,0.00,,OVC004,0.00,VWS V13.01,2013-12-16 05:01:00,
2013-12-15 21:02:00,48.2,45.7,30.29,North,357,0.0,0.0,91,0.00,,OVC004,0.00,VWS V13.01,2013-12-16 05:02:00,
2013-12-15 21:07:00,48.2,45.7,30.29,North,357,0.0,0.0,91,0.00,,OVC004,0.00,VWS V13.01,2013-12-16 05:07:00,
2013-12-15 21:12:00,48.2,45.7,30.30,North,357,0.0,0.0,91,0.00,,OVC004,0.00,VWS V13.01,2013-12-16 05:12:00,
2013-12-15 21:17:00,48.2,45.7,30.30,North,357,0.0,0.0,91,0.00,,OVC004,0.00,VWS V13.01,2013-12-16 05:17:00,
2013-12-15 21:22:00,48.2,45.7,30.30,North,357,0.0,0.0,91,0.00,,OVC004,0.00,VWS V13.01,2013-12-16 05:22:00,
2013-12-15 21:27:00,48.1,45.6,30.30,North,357,0.0,0.0,91,0.00,,OVC004,0.00,VWS V13.01,2013-12-16 05:27:00,
2013-12-15 21:32:00,48.1,45.6,30.30,North,357,0.0,0.0,91,0.00,,OVC004,0.00,VWS V13.01,2013-12-16 05:32:00,
2013-12-15 21:37:00,48.1,45.6,30.30,North,357,0.0,1.0,91,0.00,,OVC004,0.00,VWS V13.01,2013-12-16 05:37:00,
2013-12-15 21:42:00,48.1,45.6,30.30,North,357,0.0,1.0,91,0.00,,OVC004,0.00,VWS V13.01,2013-12-16 05:42:00,
2013-12-15 21:47:00,48.1,45.6,30.30,North,357,0.0,1.0,91,0.00,,OVC004,0.00,VWS V13.01,2013-12-16 05:47:00,
2013-12-15 21:52:00,48.0,45.5,30.30,North,357,0.0,1.0,91,0.00,,OVC006,0.00,VWS V13.01,2013-12-16 05:52:00,
2013-12-15 21:57:00,47.9,45.4,30.30,North,357,0.0,1.0,91,0.00,,OVC004,0.00,VWS V13.01,2013-12-16 05:57:00,
2013-12-15 22:02:00,47.9,45.7,30.31,North,357,0.0,0.0,92,0.00,,OVC006,0.00,VWS V13.01,2013-12-16 06:02:00,
2013-12-15 22:07:00,47.9,45.4,30.31,North,357,0.0,0.0,91,0.00,,OVC006,0.00,VWS V13.01,2013-12-16 06:07:00,
2013-12-15 22:12:00,47.9,45.4,30.31,North,357,0.0,0.0,91,0.00,,OVC006,0.00,VWS V13.01,2013-12-16 06:12:00,
2013-12-15 22:17:00,47.9,45.4,30.31,North,357,0.0,0.0,91,0.00,,OVC004,0.00,VWS V13.01,2013-12-16 06:17:00,
2013-12-15 22:22:00,47.9,45.4,30.31,North,357,0.0,0.0,91,0.00,,OVC006,0.00,VWS V13.01,2013-12-16 06:22:00,
2013-12-15 22:27:00,47.8,45.3,30.31,North,357,0.0,0.0,91,0.00,,OVC006,0.00,VWS V13.01,2013-12-16 06:27:00,
2013-12-15 22:32:00,47.8,45.3,30.31,North,357,0.0,1.0,91,0.00,,OVC006,0.00,VWS V13.01,2013-12-16 06:32:00,
2013-12-15 22:37:00,47.7,45.2,30.31,North,357,0.0,1.0,91,0.00,,OVC006,0.00,VWS V13.01,2013-12-16 06:37:00,
2013-12-15 22:42:00,47.7,45.2,30.32,North,357,0.0,1.0,91,0.00,,OVC006,0.00,VWS V13.01,2013-12-16 06:42:00,
2013-12-15 22:47:00,47.7,45.5,30.32,North,357,0.0,1.0,92,0.00,,OVC006,0.00,VWS V13.01,2013-12-16 06:47:00,
2013-12-15 22:52:00,47.7,45.2,30.32,North,357,0.0,1.0,91,0.00,,OVC006,0.00,VWS V13.01,2013-12-16 06:52:00,
2013-12-15 22:57:00,47.6,45.1,30.32,North,357,0.0,1.0,91,0.00,,OVC006,0.00,VWS V13.01,2013-12-16 06:57:00,
2013-12-15 23:02:00,47.6,45.1,30.32,North,357,0.0,0.0,91,0.00,,OVC006,0.00,VWS V13.01,2013-12-16 07:02:00,
2013-12-15 23:07:00,47.5,45.0,30.32,North,357,0.0,0.0,91,0.00,,OVC006,0.00,VWS V13.01,2013-12-16 07:07:00,
2013-12-15 23:12:00,47.4,44.9,30.32,North,357,0.0,0.0,91,0.00,,OVC006,0.00,VWS V13.01,2013-12-16 07:12:00,
2013-12-15 23:17:00,47.3,44.8,30.32,North,357,0.0,0.0,91,0.00,,OVC006,0.00,VWS V13.01,2013-12-16 07:17:00,
2013-12-15 23:22:00,47.0,44.5,30.32,North,357,0.0,0.0,91,0.00,,OVC006,0.00,VWS V13.01,2013-12-16 07:22:00,
2013-12-15 23:27:00,46.8,44.0,30.32,North,357,0.0,0.0,90,0.00,,OVC006,0.00,VWS V13.01,2013-12-16 07:27:00,
2013-12-15 23:32:00,46.4,43.6,30.32,North,357,0.0,0.0,90,0.00,,OVC010,0.00,VWS V13.01,2013-12-16 07:32:00,
2013-12-15 23:37:00,46.2,43.4,30.31,North,357,0.0,1.0,90,0.00,,OVC010,0.00,VWS V13.01,2013-12-16 07:37:00,
2013-12-15 23:42:00,46.0,43.2,30.32,North,357,0.0,1.0,90,0.00,,OVC010,0.00,VWS V13.01,2013-12-16 07:42:00,
2013-12-15 23:47:00,45.8,43.0,30.32,North,357,0.0,1.0,90,0.00,,OVC010,0.00,VWS V13.01,2013-12-16 07:47:00,
2013-12-15 23:52:00,45.6,42.8,30.32,North,357,0.0,1.0,90,0.00,,OVC010,0.00,VWS V13.01,2013-12-16 07:52:00,
2013-12-15 23:57:00,45.4,42.6,30.32,North,357,0.0,1.0,90,0.00,,OVC010,0.00,VWS V13.01,2013-12-16 07:57:00,